TimeCST,TemperatureF,Dew PointF,Humidity,Sea Level PressureIn,VisibilityMPH,Wind Direction,Wind SpeedMPH,Gust SpeedMPH,PrecipitationIn,Events,Conditions,WindDirDegrees,DateUTC
12:52 AM,37.9,26.1,62,30.14,10.0,WNW,16.1,21.9,N/A,,Clear,290,2013-11-10 06:52:00
1:52 AM,37.0,27.0,67,30.16,10.0,West,13.8,20.7,N/A,,Clear,280,2013-11-10 07:52:00
2:52 AM,36.0,27.0,70,30.18,10.0,WNW,10.4,-,N/A,,Clear,290,2013-11-10 08:52:00
3:52 AM,34.0,27.0,75,30.20,10.0,WNW,9.2,-,N/A,,Clear,290,2013-11-10 09:52:00
4:52 AM,33.1,27.0,78,30.24,10.0,West,9.2,-,N/A,,Clear,280,2013-11-10 10:52:00
5:52 AM,33.1,27.0,78,30.26,10.0,West,11.5,-,N/A,,Mostly Cloudy,280,2013-11-10 11:52:00
6:52 AM,33.1,27.0,78,30.28,10.0,West,8.1,-,N/A,,Mostly Cloudy,270,2013-11-10 12:52:00
7:52 AM,33.1,27.0,78,30.32,10.0,West,11.5,-,N/A,,Scattered Clouds,260,2013-11-10 13:52:00
8:52 AM,39.0,28.9,67,30.34,10.0,West,11.5,-,N/A,,Clear,280,2013-11-10 14:52:00
9:52 AM,42.1,28.9,60,30.35,10.0,WNW,11.5,-,N/A,,Clear,300,2013-11-10 15:52:00
10:52 AM,45.0,28.9,53,30.35,10.0,NW,11.5,-,N/A,,Clear,310,2013-11-10 16:52:00
11:52 AM,46.9,28.9,50,30.33,10.0,WNW,8.1,-,N/A,,Clear,300,2013-11-10 17:52:00
12:52 PM,48.0,28.9,48,30.32,10.0,NNW,8.1,-,N/A,,Clear,330,2013-11-10 18:52:00
1:52 PM,48.0,28.9,48,30.31,10.0,WSW,6.9,-,N/A,,Clear,240,2013-11-10 19:52:00
2:52 PM,48.0,30.0,50,30.31,10.0,SW,5.8,-,N/A,,Clear,220,2013-11-10 20:52:00
3:52 PM,46.0,30.0,54,30.31,10.0,WSW,8.1,-,N/A,,Clear,250,2013-11-10 21:52:00
4:52 PM,41.0,28.9,62,30.31,10.0,SW,6.9,-,N/A,,Clear,230,2013-11-10 22:52:00
5:52 PM,37.9,28.9,70,30.30,10.0,SW,4.6,-,N/A,,Partly Cloudy,220,2013-11-10 23:52:00
6:52 PM,42.1,32.0,67,30.30,10.0,SW,5.8,-,N/A,,Overcast,230,2013-11-11 00:52:00
7:52 PM,41.0,30.9,67,30.29,10.0,South,4.6,-,N/A,,Overcast,190,2013-11-11 01:52:00
8:52 PM,42.1,30.9,65,30.26,10.0,SSW,5.8,-,N/A,,Overcast,200,2013-11-11 02:52:00
9:52 PM,42.1,30.9,65,30.25,10.0,SW,10.4,-,N/A,,Overcast,220,2013-11-11 03:52:00
10:52 PM,42.1,32.0,67,30.24,10.0,SW,10.4,-,N/A,,Overcast,220,2013-11-11 04:52:00
11:52 PM,43.0,32.0,65,30.21,10.0,SSW,10.4,-,N/A,,Overcast,210,2013-11-11 05:52:00